FW0197 Weather Reports


time (UTC)temp
F
wind
direction
speed
knots
gust
knots
rain 1hr
in
rain 24hr
in
rain mn
in
humidity
%
barometer
mb
20260505052549 56 130 0.0 0.0 0.00 0.00 0.00 83 1014.5
20260505052057 56 130 0.0 0.0 0.00 0.00 0.00 83 1014.5
20260505051547 56 130 0.0 0.0 0.00 0.00 0.00 83 1014.4
20260505051058 56 130 0.0 0.0 0.00 0.00 0.00 84 1014.4
20260505050547 55 130 0.0 0.0 0.00 0.00 0.00 84 1014.4
20260505050125 55 130 0.0 0.0 0.00 0.00 0.00 85 1014.4
20260505041623 57 130 0.0 0.0 0.00 0.00 0.00 82 1014.4
20260505041049 57 130 0.0 0.0 0.00 0.00 0.00 81 1014.3
20260505040617 57 130 0.0 0.0 0.00 0.00 0.00 81 1014.3
20260505040049 57 130 0.0 0.0 0.00 0.00 0.00 81 1014.3
20260505035536 57 130 0.0 0.0 0.00 0.00 0.00 80 1014.3
20260505035054 57 130 0.0 0.0 0.00 0.00 0.00 80 1014.2
20260505034622 58 130 0.0 0.0 0.00 0.00 0.00 79 1014.2
20260505034048 58 130 0.0 0.0 0.00 0.00 0.00 79 1014.3
20260505033557 58 130 0.0 0.0 0.00 0.00 0.00 78 1014.2
20260505033107 58 130 0.0 0.0 0.00 0.00 0.00 78 1014.2
20260505032556 58 130 0.0 0.0 0.00 0.00 0.00 77 1014.1
20260505032121 59 130 0.0 0.0 0.00 0.00 0.00 77 1014.4
20260505031549 59 130 0.0 0.0 0.00 0.00 0.00 76 1014.2
20260505031056 59 130 0.0 0.0 0.00 0.00 0.00 75 1014.2
20260505030548 59 130 0.0 0.0 0.00 0.00 0.00 75 1014.2
20260505030056 59 130 0.0 0.0 0.00 0.00 0.00 74 1014.3
20260505025548 60 130 0.0 0.0 0.00 0.00 0.00 74 1014.3
20260505025054 60 130 0.0 0.0 0.00 0.00 0.00 73 1014.2
20260505024600 60 130 0.0 0.0 0.00 0.00 0.00 73 1014.2
20260505024051 60 130 0.0 0.0 0.00 0.00 0.00 72 1014.3
20260505023601 60 130 0.0 0.0 0.00 0.00 0.00 71 1014.2
20260505023110 61 130 0.0 0.0 0.00 0.00 0.00 72 1014.2
20260505022601 61 130 0.0 0.0 0.00 0.00 0.00 71 1014.3
20260505022049 61 130 0.0 0.0 0.00 0.00 0.00 71 1014.3
20260505021537 62 130 0.0 0.0 0.00 0.00 0.00 71 1014.1
20260505021052 62 130 0.0 0.0 0.00 0.00 0.00 71 1014.2
20260505020559 62 130 0.0 0.0 0.00 0.00 0.00 71 1014.2
20260505020050 62 130 0.0 0.0 0.00 0.00 0.00 68 1014.1
20260505015532 63 130 0.0 0.0 0.00 0.00 0.00 67 1014.1
20260505015052 63 130 0.0 0.0 0.00 0.00 0.00 66 1013.9
20260505014600 63 130 0.0 0.0 0.00 0.00 0.00 65 1014.0
20260505014049 64 130 0.0 0.0 0.00 0.00 0.00 64 1013.9
20260505013557 64 130 0.0 0.0 0.00 0.00 0.00 62 1013.9
20260505013045 65 130 0.0 0.0 0.00 0.00 0.00 62 1013.8
20260505012552 65 130 0.0 0.0 0.00 0.00 0.00 62 1013.8
20260505012121 65 130 0.0 0.0 0.00 0.00 0.00 61 1013.7
20260505011550 66 130 0.0 0.0 0.00 0.00 0.00 60 1013.7
20260505011041 66 130 0.0 0.0 0.00 0.00 0.00 59 1013.8
20260505010533 67 130 0.0 0.0 0.00 0.00 0.00 58 1013.8
20260505010057 67 130 0.0 0.0 0.00 0.00 0.00 57 1013.7
20260505005545 68 130 0.0 0.0 0.00 0.00 0.00 56 1013.8
20260505005101 68 130 0.0 0.0 0.00 0.00 0.00 54 1013.8
20260505004549 69 130 0.0 0.0 0.00 0.00 0.00 54 1013.9
20260505004120 69 130 0.0 0.0 0.00 0.00 0.00 53 1013.8
20260505003548 70 130 0.0 0.0 0.00 0.00 0.00 52 1013.8
20260505003055 70 130 0.0 0.0 0.00 0.00 0.00 51 1013.8
20260505002600 71 130 0.0 0.0 0.00 0.00 0.00 51 1013.7
20260505002050 71 130 0.0 0.0 0.00 0.00 0.00 50 1013.6
20260505001601 71 130 0.0 0.0 0.00 0.00 0.00 49 1013.6
20260505001051 72 130 0.0 0.0 0.00 0.00 0.00 49 1013.7
20260505000600 72 130 0.0 0.0 0.00 0.00 0.00 49 1013.8
20260505000111 73 130 0.0 0.0 0.00 0.00 0.00 48 1013.9
20260504235538 73 130 0.0 0.0 0.00 0.00 0.00 48 1014.0
20260504235113 73 130 0.0 0.0 0.00 0.00 0.00 48 1014.0
20260504234601 74 130 0.0 0.0 0.00 0.00 0.00 48 1013.9
20260504234049 74 182 0.0 0.0 0.00 0.00 0.00 46 1013.9
20260504233558 74 182 0.0 0.0 0.00 0.00 0.00 45 1014.0
20260504233048 75 125 0.0 0.0 0.00 0.00 0.00 46 1013.9
20260504232557 75 125 0.0 0.0 0.00 0.00 0.00 45 1013.9
20260504232104 75 113 1.7 0.0 0.00 0.00 0.00 43 1013.9
20260504231549 75 108 0.9 0.0 0.00 0.00 0.00 42 1014.0
20260504231058 75 131 0.0 0.0 0.00 0.00 0.00 42 1013.9
20260504230603 76 173 0.0 0.0 0.00 0.00 0.00 45 1014.1
20260504230052 76 161 0.0 0.0 0.00 0.00 0.00 44 1014.1
20260504225544 76 129 0.9 0.0 0.00 0.00 0.00 41 1014.1
20260504225053 76 101 0.0 0.0 0.00 0.00 0.00 41 1014.1
20260504224558 77 162 1.7 0.0 0.00 0.00 0.00 41 1014.1
20260504224048 77 239 0.0 0.0 0.00 0.00 0.00 45 1014.0
20260504223556 77 239 0.0 0.0 0.00 0.00 0.00 44 1014.1
20260504223047 77 125 0.0 0.0 0.00 0.00 0.00 42 1014.2
20260504222555 77 195 0.9 0.0 0.00 0.00 0.00 42 1014.3
20260504222040 78 120 0.9 0.0 0.00 0.00 0.00 41 1014.3
20260504221553 78 126 0.0 0.0 0.00 0.00 0.00 41 1014.2
20260504221058 78 236 0.0 0.0 0.00 0.00 0.00 42 1014.2
20260504220549 78 107 0.0 0.0 0.00 0.00 0.00 44 1014.2
20260504220057 78 243 0.9 0.0 0.00 0.00 0.00 43 1014.3
20260504215548 78 231 0.0 0.0 0.00 0.00 0.00 43 1014.3
20260504215059 78 121 0.0 0.0 0.00 0.00 0.00 41 1014.2
20260504214548 78 152 1.7 0.0 0.00 0.00 0.00 41 1014.3
20260504214056 78 257 0.0 0.0 0.00 0.00 0.00 42 1014.3
20260504213547 78 256 0.0 0.0 0.00 0.00 0.00 41 1014.4
20260504213044 78 260 0.0 0.0 0.00 0.00 0.00 41 1014.5
20260504212553 78 271 0.0 0.0 0.00 0.00 0.00 43 1014.4
20260504212102 78 153 0.0 0.0 0.00 0.00 0.00 45 1014.4
20260504211551 78 102 0.9 0.0 0.00 0.00 0.00 43 1014.4
20260504211057 78 251 0.0 0.0 0.00 0.00 0.00 43 1014.2
20260504210554 78 236 0.0 0.0 0.00 0.00 0.00 43 1014.4
20260504210104 78 62 0.0 0.0 0.00 0.00 0.00 42 1014.4
20260504205531 78 194 0.0 0.0 0.00 0.00 0.00 42 1014.5
20260504205051 78 222 0.9 0.0 0.00 0.00 0.00 41 1014.5
20260504204600 78 262 0.0 0.0 0.00 0.00 0.00 41 1014.5
20260504204111 78 259 0.9 0.0 0.00 0.00 0.00 41 1014.4
20260504203617 78 251 0.0 0.0 0.00 0.00 0.00 41 1014.6
20260504203106 78 183 0.0 0.0 0.00 0.00 0.00 41 1014.6
20260504202552 78 94 1.7 0.0 0.00 0.00 0.00 40 1014.5
20260504202052 78 158 0.9 0.0 0.00 0.00 0.00 41 1014.5
20260504201557 78 123 0.0 0.0 0.00 0.00 0.00 41 1014.7
20260504201048 78 118 1.7 0.0 0.00 0.00 0.00 41 1014.7
20260504200616 79 74 0.9 0.0 0.00 0.00 0.00 41 1014.8
20260504195549 78 164 0.0 0.0 0.00 0.00 0.00 45 1014.9
20260504195037 78 110 0.0 0.0 0.00 0.00 0.00 45 1015.1
20260504194553 78 162 0.0 0.0 0.00 0.00 0.00 43 1015.2
20260504194102 78 143 3.5 0.0 0.00 0.00 0.00 44 1015.4
20260504193549 78 268 0.0 0.0 0.00 0.00 0.00 45 1015.4
20260504193035 79 129 0.0 0.0 0.00 0.00 0.00 43 1015.3
20260504192555 79 116 3.5 0.0 0.00 0.00 0.00 45 1015.4
20260504192041 79 148 0.9 0.0 0.00 0.00 0.00 41 1015.4
20260504191559 80 147 0.0 0.0 0.00 0.00 0.00 41 1015.4
20260504191046 80 159 2.6 0.0 0.00 0.00 0.00 42 1015.4
20260504190536 81 33 0.0 0.0 0.00 0.00 0.00 45 1015.6
20260504190053 81 33 0.0 0.0 0.00 0.00 0.00 41 1015.6
20260504185541 82 33 0.9 0.0 0.00 0.00 0.00 40 1015.7
20260504185056 83 130 0.9 0.0 0.00 0.00 0.00 42 1015.9
20260504184604 82 105 0.9 0.0 0.00 0.00 0.00 43 1015.9
20260504184052 82 155 0.9 0.0 0.00 0.00 0.00 43 1015.9
20260504183558 81 130 0.0 0.0 0.00 0.00 0.00 41 1016.0
20260504183046 81 227 0.9 0.0 0.00 0.00 0.00 45 1016.0
20260504182555 81 220 0.0 0.0 0.00 0.00 0.00 43 1016.1
20260504182109 81 112 0.0 0.0 0.00 0.00 0.00 41 1016.2
20260504181619 81 112 0.9 0.0 0.00 0.00 0.00 42 1016.2
20260504181105 81 61 0.9 0.0 0.00 0.00 0.00 44 1016.2
20260504180533 81 163 0.9 0.0 0.00 0.00 0.00 45 1016.3
20260504180052 80 82 0.0 0.0 0.00 0.00 0.00 45 1016.4
20260504175559 80 82 0.0 0.0 0.00 0.00 0.00 43 1016.5
20260504175054 80 70 0.0 0.0 0.00 0.00 0.00 45 1016.5
20260504174541 80 118 0.9 0.0 0.00 0.00 0.00 42 1016.6
20260504174053 79 109 0.0 0.0 0.00 0.00 0.00 43 1016.6
20260504173600 79 110 0.0 0.0 0.00 0.00 0.00 43 1016.7
20260504173048 79 64 0.9 0.0 0.00 0.00 0.00 44 1016.7
20260504172554 79 41 0.0 0.0 0.00 0.00 0.00 42 1016.7
20260504172101 79 132 0.9 0.0 0.00 0.00 0.00 44 1016.8
20260504171609 79 134 0.0 0.0 0.00 0.00 0.00 43 1016.7
20260504171036 80 141 0.9 0.0 0.00 0.00 0.00 45 1017.0
20260504170552 79 176 0.0 0.0 0.00 0.00 0.00 45 1017.1
20260504151058 76 198 0.0 0.0 0.00 0.00 0.00 56 1017.7
20260504150609 75 198 0.0 0.0 0.00 0.00 0.00 55 1017.8
20260504141047 70 274 0.0 0.0 0.00 0.00 0.00 63 1018.1
20260504140556 69 251 0.0 0.0 0.00 0.00 0.00 66 1018.0
20260504130549 57 260 0.0 0.0 0.00 0.00 0.00 85 1018.3
20260504120105 46 260 0.0 0.0 0.00 0.00 0.00 100 1018.0
20260504110557 44 260 0.0 0.0 0.00 0.00 0.00 98 1017.7
20260504100543 45 260 0.0 0.0 0.00 0.00 0.00 98 1017.5
20260504081551 46 260 0.0 0.0 0.00 0.00 0.00 97 1017.4
20260504081059 46 260 0.0 0.0 0.00 0.00 0.00 97 1017.5
20260504080549 46 260 0.0 0.0 0.00 0.00 0.00 96 1017.5